[[{"header":{"parameterUnit":"m.s-1","parameterCategory":1,"la1":30.2991,"la2":30.254,"lo1":-89.0895,"lo2":-89.0444,"dy":0.0017,"dx":0.0017,"nx":28,"ny":28,"refTime":"2024-08-30T21:00:00:Z","depth":0,"parameterNumber":2,"parameterNumberName":"U-component_of_WINDS"},"data":[0,0,0,0,0,0,0,0,0,0,0,0,0,0,0,0,0,0,0,0,0,0,0,0,0,0,0,0,0,0,0,0,0,0,0,0,0,0,0,0,0,0,0,0,0,0,0,0,0,0,0,0,0,0,0,0,0,0,-2.7154,-2.7154,0,-2.7209,-2.721,-2.721,-2.7204,-2.7203,-2.7203,-2.7202,-2.7263,-2.7265,-2.7268,0,0,0,0,0,0,0,0,0,0,0,0,0,-2.7048,-2.705,-2.7154,-2.7154,-2.7155,-2.7209,-2.721,-2.7211,-2.7204,-2.7203,-2.7202,-2.7201,-2.7262,-2.7265,-2.7268,0,0,0,0,0,0,0,0,0,0,0,0,0,-2.7098,-2.705,-2.7154,-2.7159,-2.7159,-2.7209,-2.721,-2.7211,-2.7205,-2.7203,-2.7202,-2.7201,-2.7261,-2.7265,-2.7268,-2.7318,0,0,-2.728,-2.7281,0,0,0,0,0,0,0,0,-2.7095,-2.7101,-2.7157,-2.7158,-2.7159,-2.7198,-2.7195,-2.7247,-2.7205,-2.7188,-2.7202,-2.72,-2.7243,-2.7248,-2.7261,-2.7321,-2.7323,-2.728,-2.7282,-2.7284,-2.7285,0,0,0,0,0,0,0,-2.7091,-2.7099,-2.7176,-2.7158,-2.7159,-2.716,-2.7165,-2.7205,-2.7222,-2.7189,-2.7189,-2.7195,-2.7243,-2.7258,-2.7263,-2.7324,-2.728,-2.7283,-2.7285,-2.7287,-2.7428,-2.7429,0,0,0,0,0,0,-2.7086,-2.7096,-2.7174,-2.7177,-2.7123,-2.7162,-2.7169,-2.7187,-2.7222,-2.7226,-2.7196,-2.7195,-2.7252,-2.7258,-2.7265,-2.7325,-2.7284,-2.7287,-2.7289,-2.7426,-2.7428,-2.743,0,0,0,0,0,0,-2.7084,-2.7093,-2.7172,-2.7137,-2.7147,-2.7166,-2.7187,-2.7189,-2.7204,-2.7227,-2.7231,-2.7208,-2.7251,-2.726,-2.7304,-2.7327,-2.7289,-2.7292,-2.7424,-2.7427,-2.7429,-2.7446,0,0,0,0,0,0,-2.7081,-2.7092,-2.711,-2.7137,-2.7149,-2.7209,-2.7188,-2.7191,-2.7209,-2.7208,-2.7239,-2.7242,-2.7251,-2.7299,-2.7308,-2.7331,-2.7295,-2.7422,-2.7425,-2.7428,-2.7443,-2.7448,-2.7453,0,0,0,0,0,-2.7077,-2.7113,-2.7111,-2.712,-2.7171,-2.721,-2.7217,-2.7225,-2.7211,-2.723,-2.7245,-2.7241,-2.7323,-2.7304,-2.7314,-2.7339,-2.7421,-2.7424,-2.7428,-2.7441,-2.7447,-2.7452,0,0,0,0,0,0,-2.709,-2.7117,-2.7114,-2.7161,-2.7183,-2.7209,-2.7233,-2.7231,-2.7259,-2.7256,-2.7266,-2.7273,-2.7318,-2.7333,-2.7311,-2.7389,-2.737,-2.7376,-2.7377,-2.7383,-2.7388,-2.7383,-2.7298,0,0,0,0,0,-2.7098,-2.7126,-2.7149,-2.7187,-2.7199,-2.7214,-2.7231,-2.7235,-2.7259,-2.7269,-2.7288,-2.7313,-2.7344,-2.7365,-2.7395,-2.7446,-2.7453,-2.7468,-2.7473,-2.7476,-2.7481,-2.751,-2.7517,-2.7441,-2.7441,-2.7441,0,0,-2.7115,-2.7133,-2.7151,-2.719,-2.7208,-2.7238,-2.7222,-2.7255,-2.7278,-2.7275,-2.7318,-2.7332,-2.7361,-2.7409,-2.7431,-2.7423,-2.7504,-2.7481,-2.7484,-2.7486,-2.7514,-2.7521,-2.7527,-2.7443,-2.7443,-2.7442,0,0,-2.7162,-2.7178,-2.7212,-2.723,-2.7257,-2.7267,-2.7275,-2.7301,-2.7311,-2.7353,-2.7352,-2.7381,-2.7434,-2.7455,-2.7472,-2.7527,-2.7525,-2.7537,-2.7562,-2.7589,-2.7595,-2.7601,-2.762,-2.7627,-2.7542,-2.7542,-2.7542,0,-2.718,-2.7224,-2.723,-2.7263,-2.7281,-2.7278,-2.7314,-2.7331,-2.7367,-2.738,-2.737,-2.7437,-2.7457,-2.751,-2.7523,-2.7537,-2.7548,-2.7533,-2.7594,-2.7599,-2.7604,-2.7623,-2.7631,-2.7543,-2.7543,-2.7543,-2.7543,0,-2.7245,-2.7276,-2.73,-2.7333,-2.7354,-2.7388,-2.7401,-2.7422,-2.7424,-2.7436,-2.748,-2.7503,-2.7538,-2.7551,-2.7554,-2.7605,-2.7599,-2.7591,-2.7573,-2.7612,-2.7631,-2.7638,-2.7545,-2.7544,-2.7544,-2.7544,0,0,-2.7301,-2.7337,-2.7346,-2.7361,-2.739,-2.7415,-2.745,-2.7482,-2.75,-2.7525,-2.7555,-2.7601,-2.7594,-2.7614,-2.7619,-2.7644,-2.7686,-2.7633,-2.7634,-2.7642,-2.7744,-2.7749,-2.7757,-2.7685,-2.7687,-2.7688,-2.7741,0,-2.735,-2.7409,-2.7416,-2.7469,-2.7498,-2.7497,-2.7527,-2.7549,-2.7561,-2.7589,-2.7603,-2.7635,-2.7624,-2.7636,-2.766,-2.7676,-2.7707,-2.7672,-2.7714,-2.7715,-2.7706,-2.7767,-2.7772,-2.7822,-2.7748,-2.775,-2.775,0,-2.7416,-2.7441,-2.7497,-2.7522,-2.7535,-2.7561,-2.7592,-2.7618,-2.7644,-2.7651,-2.7673,-2.7676,-2.7713,-2.7694,-2.7746,-2.7723,-2.774,-2.7751,-2.7753,-2.7757,-2.7735,-2.7772,-2.7837,-2.7845,-2.7762,-2.7761,-2.776,0,-2.7451,-2.7499,-2.7539,-2.7552,-2.7583,-2.7601,-2.7616,-2.764,-2.7659,-2.7687,-2.77,-2.7732,-2.7749,-2.7775,-2.7787,-2.7772,-2.7839,-2.782,-2.7847,-2.7846,-2.786,-2.7859,-2.7929,-2.7872,-2.7872,-2.7872,-2.7872,0,-2.7505,-2.7539,-2.7555,-2.7579,-2.7618,-2.7626,-2.7664,-2.7678,-2.77,-2.7728,-2.773,-2.7756,-2.7771,-2.78,-2.781,-2.7852,-2.786,-2.7868,-2.787,-2.7867,-2.7866,-2.7879,-2.7876,-2.7874,-2.7874,-2.7873,-2.7873,0,-2.7551,-2.7562,-2.7605,-2.7631,-2.7638,-2.7665,-2.7688,-2.7712,-2.7724,-2.776,-2.7769,-2.7788,-2.7822,-2.7837,-2.788,-2.7887,-2.7935,-2.7935,-2.7925,-2.7926,-2.7952,-2.7949,-2.8032,-2.8044,-2.7979,-2.798,-2.798,0,-2.7585,-2.7611,-2.7638,-2.7656,-2.7671,-2.77,-2.7719,-2.7729,-2.7749,-2.7781,-2.7802,-2.7836,-2.7864,-2.7919,-2.7938,-2.7972,-2.7972,-2.7999,-2.7977,-2.7974,-2.7973,-2.7971,-2.7974,-2.8003,-2.8004,-2.8004,-2.8005,0,-2.7644,-2.7648,-2.7675,-2.7704,-2.7726,-2.775,-2.7773,-2.7789,-2.7802,-2.7825,-2.786,-2.7881,-2.7924,-2.7959,-2.7993,-2.8009,-2.801,-2.8011,-2.8019,-2.8017,-2.801,-2.8014,-2.7936,-2.8009,-2.8009,-2.8008,-2.8008,-2.8008,-2.7685,-2.7707,-2.773,-2.776,-2.7779,-2.78,-2.7824,-2.7839,-2.7867,-2.7901,-2.7906,-2.7943,-2.797,-2.8015,-2.8033,-2.8063,-2.8057,-2.8068,-2.8071,-2.8074,-2.8075,-2.8005,-2.807,-2.807,-2.807,-2.8069,-2.8069,0,-2.7744,-2.7758,-2.7785,-2.7817,-2.7841,-2.7838,-2.7863,-2.7884,-2.7916,-2.794,-2.7966,-2.8006,-2.804,-2.8061,-2.8095,-2.8115,-2.8117,-2.8124,-2.8123,-2.8127,-2.8079,-2.8069,-2.8123,-2.8123,-2.8123,-2.8123,-2.8123,-2.8123,-2.7777,-2.7816,-2.7823,-2.7871,-2.7886,-2.7921,-2.7936,-2.7956,-2.7975,-2.8019,-2.8046,-2.8059,-2.8082,-2.8118,-2.8149,-2.8154,-2.8167,-2.8175,-2.818,-2.8135,-2.813,-2.8125,-2.8115,-2.8178,-2.8178,-2.8225,-2.8226,-2.8226]},{"header":{"parameterUnit":"m.s-1","parameterCategory":1,"la1":30.2991,"la2":30.254,"lo1":-89.0895,"lo2":-89.0444,"dy":0.0017,"dx":0.0017,"nx":28,"ny":28,"refTime":"2024-08-30T21:00:00:Z","depth":0,"parameterNumber":3,"parameterNumberName":"V-component_of_WINDS"},"data":[0,0,0,0,0,0,0,0,0,0,0,0,0,0,0,0,0,0,0,0,0,0,0,0,0,0,0,0,0,0,0,0,0,0,0,0,0,0,0,0,0,0,0,0,0,0,0,0,0,0,0,0,0,0,0,0,0,0,3.3349,3.3349,0,3.3364,3.3365,3.3365,3.3387,3.3387,3.3387,3.3388,3.3401,3.3401,3.3401,0,0,0,0,0,0,0,0,0,0,0,0,0,3.3336,3.3336,3.3349,3.3349,3.3349,3.3364,3.3365,3.3365,3.3386,3.3387,3.3387,3.3388,3.3401,3.3401,3.3401,0,0,0,0,0,0,0,0,0,0,0,0,0,3.3346,3.3336,3.3349,3.3362,3.3363,3.3364,3.3365,3.3365,3.3386,3.3387,3.3388,3.3388,3.3401,3.3401,3.3401,3.339,0,0,3.3401,3.3401,0,0,0,0,0,0,0,0,3.3345,3.3346,3.336,3.3361,3.3363,3.3374,3.3365,3.3373,3.3386,3.3378,3.3388,3.3388,3.3392,3.3393,3.3394,3.3391,3.3391,3.3401,3.3401,3.3401,3.3401,0,0,0,0,0,0,0,3.3344,3.3345,3.3355,3.336,3.3362,3.3366,3.3368,3.3367,3.3381,3.3378,3.338,3.3382,3.3393,3.3394,3.3395,3.3392,3.3401,3.3401,3.3401,3.3401,3.338,3.3379,0,0,0,0,0,0,3.3342,3.3345,3.3354,3.3355,3.3355,3.3366,3.3368,3.337,3.3381,3.3384,3.3381,3.3383,3.3394,3.3395,3.3395,3.3383,3.3401,3.3401,3.3401,3.3381,3.338,3.3379,0,0,0,0,0,0,3.3342,3.3343,3.3354,3.3351,3.3352,3.3366,3.3367,3.337,3.3371,3.3383,3.3386,3.338,3.3394,3.3395,3.3391,3.3384,3.3401,3.3401,3.3381,3.338,3.338,3.3358,0,0,0,0,0,0,3.3341,3.3342,3.3339,3.335,3.3352,3.335,3.3367,3.337,3.3372,3.3374,3.3383,3.3385,3.3395,3.3391,3.3391,3.3384,3.3401,3.3382,3.3381,3.338,3.3359,3.3356,3.3354,0,0,0,0,0,3.3341,3.3331,3.3338,3.3339,3.3348,3.335,3.3351,3.3363,3.3371,3.3367,3.3375,3.3385,3.3385,3.3391,3.3391,3.3383,3.3383,3.3381,3.338,3.3361,3.3357,3.3354,0,0,0,0,0,0,3.3317,3.3333,3.3341,3.3335,3.3341,3.3353,3.3349,3.3358,3.3361,3.3363,3.3377,3.3379,3.3373,3.3378,3.3385,3.3373,3.3385,3.3384,3.337,3.3367,3.3364,3.3363,3.3401,0,0,0,0,0,3.3312,3.3312,3.3326,3.3319,3.3322,3.3335,3.3336,3.3345,3.3351,3.3353,3.3361,3.3366,3.3367,3.3367,3.3369,3.3361,3.3363,3.3355,3.3353,3.335,3.3349,3.3345,3.3342,3.3375,3.3375,3.3375,0,0,3.3299,3.3308,3.3308,3.3315,3.3321,3.332,3.3337,3.3336,3.3336,3.3353,3.335,3.3356,3.3362,3.3356,3.3354,3.336,3.334,3.3349,3.3347,3.3347,3.3343,3.334,3.3337,3.3374,3.3374,3.3374,0,0,3.3277,3.3284,3.328,3.3285,3.3294,3.3303,3.3302,3.3313,3.3318,3.3315,3.3328,3.3328,3.333,3.3334,3.3336,3.3317,3.3326,3.3317,3.3302,3.3298,3.3296,3.3293,3.3286,3.3283,3.3316,3.3316,3.3316,0,3.3261,3.3262,3.3276,3.3275,3.3277,3.3294,3.329,3.3294,3.3302,3.3304,3.3311,3.3314,3.3319,3.3314,3.331,3.3311,3.331,3.3316,3.3295,3.3293,3.3291,3.3284,3.3281,3.3314,3.3315,3.3315,3.3315,0,3.3241,3.3242,3.3237,3.3246,3.3248,3.3245,3.3258,3.3259,3.3268,3.3276,3.3273,3.328,3.3284,3.3284,3.3292,3.328,3.3284,3.3293,3.3305,3.3286,3.328,3.3278,3.3313,3.3313,3.3313,3.3314,0,0,3.3204,3.3222,3.3219,3.3224,3.3235,3.3235,3.3233,3.3238,3.3238,3.3243,3.3241,3.3242,3.3251,3.3254,3.3263,3.3259,3.3243,3.3269,3.3269,3.3263,3.323,3.3223,3.322,3.325,3.3249,3.3249,3.323,0,3.3184,3.3182,3.3195,3.3188,3.3189,3.3206,3.3204,3.321,3.3217,3.3218,3.3226,3.3227,3.3239,3.324,3.3238,3.3245,3.3236,3.3247,3.3247,3.3247,3.3245,3.3217,3.3209,3.319,3.3227,3.3227,3.3227,0,3.316,3.3165,3.3159,3.3171,3.3172,3.317,3.3175,3.3176,3.3184,3.319,3.3193,3.3204,3.3202,3.3214,3.3211,3.3218,3.3219,3.3223,3.3222,3.3222,3.3235,3.3215,3.3185,3.3182,3.3223,3.3223,3.3224,0,3.3133,3.3138,3.3136,3.3139,3.3153,3.3151,3.3157,3.3165,3.3167,3.3171,3.3173,3.3177,3.3179,3.3181,3.3192,3.32,3.3188,3.3201,3.3192,3.3192,3.3188,3.3188,3.3157,3.319,3.319,3.319,3.319,0,3.3108,3.3104,3.3124,3.3122,3.3118,3.3133,3.3128,3.3135,3.3142,3.3142,3.3156,3.3155,3.3171,3.3171,3.318,3.3176,3.3177,3.3181,3.3183,3.3179,3.3179,3.318,3.3181,3.3189,3.3189,3.3189,3.3189,0,3.3077,3.309,3.3089,3.3103,3.3106,3.3102,3.3114,3.3112,3.3121,3.312,3.3121,3.3135,3.3136,3.3148,3.3152,3.3158,3.315,3.3155,3.3148,3.315,3.314,3.314,3.3107,3.3104,3.3139,3.3139,3.3139,0,3.3061,3.3058,3.3072,3.3073,3.3079,3.308,3.3083,3.3097,3.3099,3.3108,3.3105,3.3109,3.3112,3.3113,3.3123,3.3126,3.3131,3.3119,3.3131,3.3128,3.313,3.313,3.313,3.3116,3.3116,3.3115,3.3115,0,3.303,3.3037,3.304,3.3046,3.3049,3.3054,3.306,3.306,3.3076,3.3077,3.3079,3.3082,3.3087,3.3089,3.3094,3.3099,3.3109,3.3111,3.3109,3.3105,3.3101,3.3103,3.314,3.3112,3.3112,3.3112,3.3113,3.3113,3.3005,3.3004,3.3014,3.3017,3.3023,3.3029,3.3028,3.3037,3.304,3.3046,3.3054,3.3055,3.3063,3.3071,3.3075,3.3076,3.3082,3.3079,3.3078,3.3077,3.3075,3.3101,3.3077,3.3077,3.3077,3.3077,3.3077,0,3.2975,3.2982,3.2985,3.2994,3.2996,3.3007,3.3014,3.3016,3.3017,3.3024,3.3027,3.3029,3.3032,3.3042,3.3046,3.3045,3.3049,3.3045,3.3045,3.3046,3.3069,3.3071,3.3041,3.3041,3.3041,3.3041,3.3041,3.3041,3.2959,3.2958,3.2966,3.2967,3.2974,3.2976,3.2979,3.2984,3.299,3.2992,3.2995,3.3002,3.301,3.3015,3.3018,3.3021,3.3021,3.3015,3.3019,3.3041,3.3044,3.3048,3.3049,3.3015,3.3015,3.2996,3.2995,3.2995]}]]